User: anonymous   Login
Location: Terra Rouge Observatory
(46.0000°N, 62.7500°W)
Time: 13:25:03
(UTC-04:00)
Language:

NOSS 3-1 (A) - Orbit

View from above orbital plane
View from above orbital plane
View from above satellite
View from above satellite

Ground track
Ground track

The orbit data is extracted from the following two-line orbital elements,

1 26905U 01040A   16020.79015026 0.00000050  00000-0  66100-4 0    01
2 26905  63.4226 263.9284 0328000 357.4179   2.5821 13.40732589    00
Epoch (UTC): 20 January 2016 18:57:48
Eccentricity: 0.0328000
inclination: 63.4226°
perigee height: 861 km
apogee height: 1352 km
right ascension of ascending node: 263.9284°
argument of perigee: 357.4179°
revolutions per day: 13.40732589
mean anomaly at epoch: 2.5821°
orbit number at epoch: 0

The dashed part of the orbit path shows where the satellite is in the earth's shadow,  

DLR